GW5446 Weather Reports


time (UTC)temp
F
wind
direction
speed
knots
gust
knots
rain 1hr
in
rain 24hr
in
rain mn
in
humidity
%
barometer
mb
20260503072014 46 0 0.0 0.0 0.00 0.00 0.00 76 1015.3
20260503071530 46 0 0.0 2.6 0.00 0.00 0.00 76 1015.3
20260503071011 47 0 0.0 2.6 0.00 0.00 0.00 74 1015.1
20260503070514 48 278 1.7 2.6 0.00 0.00 0.00 71 1015.1
20260503055009 48 0 0.0 0.0 0.00 0.00 0.00 73 1014.8
20260503054543 48 0 0.0 1.7 0.00 0.00 0.00 74 1014.8
20260503054011 48 0 0.0 2.6 0.00 0.00 0.00 74 1014.7
20260503053511 51 0 0.9 2.6 0.00 0.00 0.00 67 1014.7
20260503053032 51 333 0.9 2.6 0.00 0.00 0.00 69 1014.6
20260503052508 50 0 0.0 0.0 0.00 0.00 0.00 70 1014.6
20260503052010 50 0 0.0 1.7 0.00 0.00 0.00 69 1014.6
20260503051529 51 0 0.9 1.7 0.00 0.00 0.00 67 1014.5
20260503051009 51 0 0.0 0.0 0.00 0.00 0.00 69 1014.5
20260503050515 51 0 0.0 0.0 0.00 0.00 0.00 69 1014.5
20260503050028 51 0 0.0 0.0 0.00 0.00 0.00 67 1014.5
20260503045508 51 0 0.0 0.0 0.00 0.00 0.00 70 1014.4
20260503045007 51 0 0.0 0.0 0.00 0.00 0.00 69 1014.4
20260503044537 50 0 0.0 1.7 0.00 0.00 0.00 71 1014.4
20260503044010 51 0 0.0 1.7 0.00 0.00 0.00 70 1014.4
20260503043508 51 0 0.0 1.7 0.00 0.00 0.00 69 1014.3
20260503043033 52 0 0.9 1.7 0.00 0.00 0.00 66 1014.3
20260503042508 52 288 0.9 2.6 0.00 0.00 0.00 64 1014.4
20260503042012 53 290 1.7 2.6 0.00 0.00 0.00 63 1014.4
20260503041528 53 289 1.7 2.6 0.00 0.00 0.00 63 1014.4
20260503041008 53 288 1.7 2.6 0.00 0.00 0.00 64 1014.4
20260503040512 54 0 0.0 0.0 0.00 0.00 0.00 63 1014.3
20260503040035 54 0 0.0 0.0 0.00 0.00 0.00 64 1014.3
20260503035511 55 0 0.0 0.0 0.00 0.00 0.00 63 1014.2
20260503035010 54 0 0.0 1.7 0.00 0.00 0.00 68 1014.3
20260503034528 54 0 0.0 1.7 0.00 0.00 0.00 67 1014.2
20260503034011 54 0 0.0 2.6 0.00 0.00 0.00 65 1014.1
20260503033510 54 278 0.9 2.6 0.00 0.00 0.00 64 1014.0
20260503033030 55 0 0.0 0.0 0.00 0.00 0.00 64 1014.0
20260503032509 55 0 0.0 0.0 0.00 0.00 0.00 63 1014.1
20260503032012 55 0 0.0 1.7 0.00 0.00 0.00 64 1013.9
20260503031530 56 0 0.0 3.5 0.00 0.00 0.00 61 1013.9
20260503031009 55 307 1.7 3.5 0.00 0.00 0.00 64 1013.8
20260503030509 55 285 1.7 2.6 0.00 0.00 0.00 65 1013.8
20260503030035 56 279 0.9 2.6 0.00 0.00 0.00 65 1013.8
20260503025510 56 276 0.9 2.6 0.00 0.00 0.00 64 1013.8
20260503025010 57 266 0.9 1.7 0.00 0.00 0.00 62 1013.8
20260503024533 58 0 0.0 3.5 0.00 0.00 0.00 61 1013.7
20260503024009 60 354 0.9 3.5 0.00 0.00 0.00 56 1013.5
20260503023510 60 1 0.9 2.6 0.00 0.00 0.00 59 1013.5
20260503023029 59 342 0.0 1.7 0.00 0.00 0.00 61 1013.6
20260503022508 59 0 0.0 0.0 0.00 0.00 0.00 65 1013.6
20260503022009 60 0 0.0 0.0 0.00 0.00 0.00 58 1013.5
20260503021528 61 0 0.0 0.0 0.00 0.00 0.00 56 1013.5
20260503021010 61 0 0.0 0.0 0.00 0.00 0.00 54 1013.5
20260503020510 62 0 0.0 0.0 0.00 0.00 0.00 54 1013.5
20260503020028 62 0 0.0 0.0 0.00 0.00 0.00 53 1013.6
20260503015514 62 0 0.0 0.0 0.00 0.00 0.00 53 1013.6
20260503015009 62 0 0.0 0.0 0.00 0.00 0.00 52 1013.5
20260503014528 62 0 0.0 0.0 0.00 0.00 0.00 53 1013.6
20260503014011 62 0 0.0 0.0 0.00 0.00 0.00 53 1013.6
20260503013511 62 0 0.0 0.0 0.00 0.00 0.00 55 1013.6
20260503013037 62 0 0.0 1.7 0.00 0.00 0.00 56 1013.6
20260503012509 63 0 0.0 1.7 0.00 0.00 0.00 54 1013.5
20260503012010 64 333 0.0 1.7 0.00 0.00 0.00 54 1013.5
20260503011529 64 0 0.0 1.7 0.00 0.00 0.00 50 1013.6
20260503011010 65 0 0.0 2.6 0.00 0.00 0.00 49 1013.5
20260503010514 66 288 0.0 2.6 0.00 0.00 0.00 45 1013.6
20260503010031 68 281 0.9 1.7 0.00 0.00 0.00 43 1013.6
20260503005511 67 0 0.0 0.0 0.00 0.00 0.00 50 1013.6
20260503005009 69 0 0.0 0.0 0.00 0.00 0.00 55 1013.8
20260503004557 69 0 0.0 0.0 0.00 0.00 0.00 50 1013.6
20260503004012 68 0 0.0 0.0 0.00 0.00 0.00 47 1013.7
20260503003509 68 0 0.0 0.0 0.00 0.00 0.00 53 1013.8
20260503003042 68 0 0.0 1.7 0.00 0.00 0.00 45 1013.7
20260503002510 68 0 0.0 1.7 0.00 0.00 0.00 41 1013.7
20260503002009 68 0 0.9 1.7 0.00 0.00 0.00 38 1013.7
20260503001540 68 0 0.0 0.0 0.00 0.00 0.00 46 1013.6
20260503001008 69 0 0.0 0.0 0.00 0.00 0.00 50 1013.7
20260503000509 70 0 0.0 1.7 0.00 0.00 0.00 43 1013.8
20260503000028 71 0 0.0 1.7 0.00 0.00 0.00 44 1013.8
20260502235510 71 0 0.0 1.7 0.00 0.00 0.00 35 1013.8
20260502235010 71 35 0.0 1.7 0.00 0.00 0.00 41 1013.8
20260502234538 71 269 0.0 1.7 0.00 0.00 0.00 37 1013.8
20260502234009 71 0 0.0 1.7 0.00 0.00 0.00 32 1013.9
20260502233507 71 0 0.0 5.2 0.00 0.00 0.00 31 1013.9
20260502233038 71 0 1.7 5.2 0.00 0.00 0.00 29 1014.0
20260502232507 72 70 0.9 5.2 0.00 0.00 0.00 31 1014.0
20260502232010 72 113 2.6 5.2 0.00 0.00 0.00 33 1014.0
20260502231528 73 328 1.7 7.8 0.00 0.00 0.00 28 1014.0
20260502231010 73 129 3.5 8.7 0.00 0.00 0.00 28 1014.1
20260502230511 74 124 4.3 8.7 0.00 0.00 0.00 34 1014.1
20260502230034 73 0 2.6 8.7 0.00 0.00 0.00 34 1014.3
20260502225510 73 122 3.5 8.7 0.00 0.00 0.00 31 1014.4
20260502225008 73 131 1.7 4.3 0.00 0.00 0.00 31 1014.4
20260502224528 73 114 2.6 4.3 0.00 0.00 0.00 34 1014.5
20260502224013 74 147 1.7 4.3 0.00 0.00 0.00 28 1014.5
20260502223512 74 113 1.7 7.0 0.00 0.00 0.00 32 1014.4
20260502223038 73 131 1.7 8.7 0.00 0.00 0.00 28 1014.5
20260502222511 73 101 5.2 8.7 0.00 0.00 0.00 28 1014.6
20260502222010 73 131 2.6 5.2 0.00 0.00 0.00 32 1014.6
20260502221529 73 106 2.6 4.3 0.00 0.00 0.00 30 1014.6
20260502221008 72 126 1.7 3.5 0.00 0.00 0.00 32 1014.7
20260502220511 72 162 0.0 1.7 0.00 0.00 0.00 36 1014.8
20260502220028 72 250 0.0 3.5 0.00 0.00 0.00 30 1014.9
20260502215513 72 0 0.0 3.5 0.00 0.00 0.00 33 1015.0
20260502215010 72 161 0.9 2.6 0.00 0.00 0.00 32 1015.0
20260502214532 71 0 0.0 3.5 0.00 0.00 0.00 30 1015.1
20260502214015 71 0 1.7 3.5 0.00 0.00 0.00 33 1015.0
20260502213511 71 0 0.0 5.2 0.00 0.00 0.00 31 1015.1
20260502213028 71 155 1.7 5.2 0.00 0.00 0.00 33 1015.1
20260502212510 72 156 0.9 3.5 0.00 0.00 0.00 34 1015.2
20260502212009 72 96 0.0 5.2 0.00 0.00 0.00 33 1015.3
20260502211532 72 0 0.9 5.2 0.00 0.00 0.00 32 1015.3
20260502211008 72 184 2.6 4.3 0.00 0.00 0.00 30 1015.4
20260502210510 71 138 0.0 7.8 0.00 0.00 0.00 33 1015.4
20260502210035 72 130 4.3 7.8 0.00 0.00 0.00 31 1015.5
20260502205508 72 161 2.6 7.0 0.00 0.00 0.00 32 1015.5
20260502205010 71 149 1.7 3.5 0.00 0.00 0.00 33 1015.6
20260502204529 71 0 0.0 5.2 0.00 0.00 0.00 33 1015.7
20260502204010 71 142 1.7 5.2 0.00 0.00 0.00 35 1015.7
20260502203513 71 167 2.6 5.2 0.00 0.00 0.00 33 1015.8
20260502203030 71 132 2.6 5.2 0.00 0.00 0.00 38 1015.7
20260502202511 70 167 1.7 5.2 0.00 0.00 0.00 35 1015.8
20260502202009 70 164 1.7 7.0 0.00 0.00 0.00 38 1015.9
20260502201529 70 127 2.6 7.0 0.00 0.00 0.00 42 1016.0
20260502201011 69 130 3.5 7.0 0.00 0.00 0.00 43 1016.0
20260502200511 68 113 1.7 6.1 0.00 0.00 0.00 41 1016.1
20260502200028 69 176 1.7 4.3 0.00 0.00 0.00 40 1016.1
20260502195511 68 178 0.9 4.3 0.00 0.00 0.00 41 1016.1
20260502195011 68 96 2.6 4.3 0.00 0.00 0.00 41 1016.3
20260502194533 68 75 0.9 6.1 0.00 0.00 0.00 43 1016.3
20260502194010 67 104 2.6 6.1 0.00 0.00 0.00 38 1016.5
20260502193511 68 145 1.7 6.1 0.00 0.00 0.00 45 1016.5
20260502193033 67 141 2.6 6.1 0.00 0.00 0.00 44 1016.5
20260502192511 67 121 3.5 6.1 0.00 0.00 0.00 41 1016.6
20260502192013 66 119 1.7 5.2 0.00 0.00 0.00 39 1016.8
20260502191529 66 117 0.9 5.2 0.00 0.00 0.00 43 1016.8
20260502191010 65 102 1.7 5.2 0.00 0.00 0.00 41 1016.9
20260502190511 65 106 2.6 7.8 0.00 0.00 0.00 41 1016.8
20260502190037 65 111 4.3 7.8 0.00 0.00 0.00 42 1016.9
20260502185509 65 126 3.5 6.1 0.00 0.00 0.00 45 1016.8
20260502185009 65 105 3.5 6.1 0.00 0.00 0.00 45 1017.0
20260502184530 65 99 0.9 7.0 0.00 0.00 0.00 42 1017.0
20260502184014 65 126 2.6 7.8 0.00 0.00 0.00 43 1017.1
20260502183511 64 127 3.5 7.8 0.00 0.00 0.00 48 1017.1
20260502183028 64 95 4.3 7.8 0.00 0.00 0.00 45 1017.2
20260502182509 64 124 1.7 8.7 0.00 0.00 0.00 43 1017.3
20260502182010 64 122 5.2 8.7 0.00 0.00 0.00 45 1017.4
20260502181536 64 103 4.3 7.0 0.00 0.00 0.00 47 1017.6
20260502181010 63 148 4.3 6.1 0.00 0.00 0.00 45 1017.7
20260502180512 63 115 3.5 7.0 0.00 0.00 0.00 46 1017.8
20260502170509 60 77 1.7 7.8 0.00 0.00 0.00 53 1018.2
20260502164012 58 212 0.9 8.7 0.00 0.00 0.00 51 1018.5
20260502163509 58 127 2.6 8.7 0.00 0.00 0.00 50 1018.6
20260502163039 57 139 2.6 6.1 0.00 0.00 0.00 56 1018.6
20260502162510 57 125 4.3 6.1 0.00 0.00 0.00 56 1018.5
20260502162011 57 141 3.5 6.1 0.00 0.00 0.00 53 1018.5
20260502161533 56 155 1.7 5.2 0.00 0.00 0.00 56 1018.6
20260502161010 57 110 1.7 8.7 0.00 0.00 0.00 54 1018.6
20260502160510 56 0 1.7 8.7 0.00 0.00 0.00 57 1018.7
20260502152010 52 0 1.7 4.3 0.00 0.00 0.00 63 1018.7
20260502151547 52 120 0.0 2.6 0.00 0.00 0.00 68 1018.7
20260502151010 51 0 0.0 2.6 0.00 0.00 0.00 70 1018.6
20260502150510 51 0 0.0 1.7 0.00 0.00 0.00 71 1018.6
20260502130513 40 0 0.0 0.0 0.00 0.00 0.00 86 1018.2
20260502123511 42 0 0.0 0.0 0.00 0.00 0.00 81 1017.8
20260502123036 41 0 0.0 0.0 0.00 0.00 0.00 81 1017.9
20260502122511 41 0 0.0 0.0 0.00 0.00 0.00 82 1017.8
20260502122010 41 0 0.0 0.0 0.00 0.00 0.00 83 1017.9
20260502121530 41 0 0.0 0.0 0.00 0.00 0.00 83 1017.8
20260502121010 40 0 0.0 0.0 0.00 0.00 0.00 81 1017.9
20260502120510 42 0 0.0 0.0 0.00 0.00 0.00 80 1017.7
20260502115508 40 0 0.0 0.0 0.00 0.00 0.00 84 1017.8
20260502115013 41 0 0.0 0.0 0.00 0.00 0.00 85 1017.8
20260502114527 40 0 0.0 0.0 0.00 0.00 0.00 83 1017.9
20260502114009 42 0 0.0 0.0 0.00 0.00 0.00 82 1017.7
20260502113512 42 0 0.0 0.0 0.00 0.00 0.00 81 1017.7
20260502113030 42 0 0.0 0.0 0.00 0.00 0.00 81 1017.8
20260502112508 42 0 0.0 0.0 0.00 0.00 0.00 82 1017.7
20260502112010 42 0 0.0 0.0 0.00 0.00 0.00 82 1017.6
20260502111530 42 0 0.0 0.0 0.00 0.00 0.00 80 1017.6
20260502111010 42 0 0.0 0.0 0.00 0.00 0.00 81 1017.7
20260502110510 43 0 0.0 1.7 0.00 0.00 0.00 78 1017.7
20260502110028 43 0 0.0 1.7 0.00 0.00 0.00 81 1017.7
20260502105511 42 0 0.0 0.0 0.00 0.00 0.00 81 1017.6
20260502105010 41 0 0.0 1.7 0.00 0.00 0.00 82 1017.7
20260502104532 41 0 0.0 1.7 0.00 0.00 0.00 82 1017.8
20260502104013 42 0 0.0 1.7 0.00 0.00 0.00 78 1017.8
20260502103510 44 0 0.0 0.0 0.00 0.00 0.00 79 1017.8
20260502103029 43 0 0.0 0.0 0.00 0.00 0.00 78 1017.7
20260502102509 43 0 0.0 2.6 0.00 0.00 0.00 79 1017.7
20260502102009 43 0 0.0 2.6 0.00 0.00 0.00 81 1017.6
20260502101527 44 122 0.9 2.6 0.00 0.00 0.00 78 1017.5
20260502101009 43 0 0.0 0.0 0.00 0.00 0.00 79 1017.5
20260502100509 43 0 0.0 1.7 0.00 0.00 0.00 79 1017.4
20260502091530 45 0 0.0 0.0 0.00 0.00 0.00 76 1017.3
20260502091011 44 0 0.0 0.0 0.00 0.00 0.00 78 1017.3
20260502090509 44 0 0.0 0.0 0.00 0.00 0.00 78 1017.2